Location: Fredericksburg
(30.2750°N, 98.8720°W)
Time: 16:28:43
(UTC-06:00)

Daily predictions for brighter satellites

Satellite Brightness Start Highest point End
(mag) Time Altitude Azimuth Time Altitude Azimuth Time Altitude Azimuth
Cosmos 1655 Rocket 4.1 17:52:11 10° N 17:58:36 84° E 18:05:00 10° S
CORIOLIS 4.4 17:56:08 10° SSE 18:01:20 50° ENE 18:06:32 10° N
Cosmos 2227 Rocket 2.6 17:57:18 10° N 18:02:36 39° ENE 18:07:50 10° SE
Cosmos 1455 Rocket 3.1 17:58:41 10° N 18:03:02 61° E 18:07:20 10° SSE
Ariane Rocket 3.0 18:01:03 10° SSE 18:06:03 68° ENE 18:11:06 10° N
YAOGAN 1 3.3 18:03:23 10° SE 18:07:11 31° ENE 18:11:00 10° N
Cosmos 1544 Rocket 3.5 18:02:58 10° N 18:07:19 76° E 18:11:37 10° S
Cosmos 1271 Rocket 2.7 18:04:45 10° N 18:08:35 88° E 18:12:27 10° S
Cosmos 2219 4.0 18:03:58 10° NNW 18:09:28 58° WSW 18:14:58 10° S
Delta 2 Rocket 4.1 18:04:15 10° WNW 18:09:53 63° NNE 18:15:04 10° E
AQUARIUS 4.1 18:08:17 10° SSE 18:12:45 78° ENE 18:17:15 10° N
USA 116 3.0 18:10:16 10° NNE 18:13:23 78° ESE 18:16:28 10° S
Cosmos 1980 Rocket 3.0 18:08:56 10° SSE 18:13:50 32° ESE 18:18:49 10° NE
Meteor 1-23 Rocket 4.4 18:09:45 10° S 18:15:22 56° E 18:20:56 10° NNE
Meteor 2-9 Rocket 4.2 18:10:26 10° N 18:15:46 55° E 18:20:58 10° SSE
Cosmos 1125 Rocket 3.9 18:13:23 10° SSW 18:18:39 70° WNW 18:23:56 10° N
Cosmos 1484 Rocket 3.3 18:15:53 10° S 18:19:50 69° WSW 18:23:51 10° NNW
Cosmos 389 Rocket 4.4 18:20:45 10° NNW 18:23:53 33° W 18:27:00 10° SSW
Cosmos 1666 3.7 18:23:49 10° NNW 18:27:26 49° W 18:31:02 10° S
SJ 16-02 2.2 18:23:34 10° SSW 18:27:49 51° WNW 18:32:06 10° N
Cosmos 1656 4.2 18:22:54 10° SSW 18:28:26 61° WNW 18:33:54 10° NNE
Atlas Centaur 2 2.1 18:23:13 10° W 18:28:52 69° SSW 18:33:17 10° ESE
COSMO-SKYMED 1 2.5 18:24:44 10° NNE 18:29:03 67° E 18:33:21 10° S
Cosmos 2297 Rocket 2.2 18:23:40 10° N 18:29:14 58° ENE 18:34:47 10° SSE
Shenzhou-11 Module 4.2 18:28:07 10° S 18:29:51 14° SE 18:31:01 12° ESE
USA 238 DEB 3.8 18:22:45 10° NNW 18:29:52 68° ENE 18:37:02 10° SE
USA 238 3.8 18:22:52 10° NNW 18:29:58 68° ENE 18:37:07 10° SE
IRS-1A Rocket 4.2 18:25:01 10° SSE 18:30:35 70° ENE 18:36:06 10° N
Cosmos 1184 Rocket 4.5 18:28:57 10° SE 18:31:00 16° E 18:31:00 16° E
CZ-2C R/B 4.3 18:26:41 10° N 18:31:21 63° WNW 18:36:03 10° SSW
Lacrosse 5 rocket 3.4 18:31:33 10° SE 18:32:51 11° ESE 18:33:23 11° ESE
Cosmos 1048 Rocket 4.1 18:27:57 10° N 18:33:15 56° ENE 18:38:29 10° SSE
SMAP 4.0 18:33:31 10° S 18:38:01 50° W 18:42:32 10° NNW
RESURS DK-1 3.0 18:38:39 10° S 18:42:24 35° ESE 18:44:18 23° ENE
Meteor 2-11 Rocket 4.4 18:38:52 10° S 18:44:56 67° E 18:51:02 10° NNE
MTI 4.5 18:42:26 10° N 18:45:36 54° WNW 18:48:46 10° SSW
Cosmos 724 4.2 18:42:23 10° NNW 18:48:08 64° ENE 18:53:53 10° SE
Okean 1-7 Rocket 3.6 18:45:54 10° S 18:50:10 57° E 18:54:15 11° NNE
SL-24 R/B - RUBIN 2 4.4 18:44:08 10° SSW 18:50:33 83° WNW 18:55:53 13° NNE
NOAA 12 4.2 18:46:25 10° SSE 18:51:30 51° ENE 18:56:34 10° N
Cosmos 1025 Rocket 2.9 18:47:26 10° S 18:51:45 85° E 18:56:02 10° N
ALOS 2.3 18:47:41 10° SSE 18:52:13 55° ENE 18:56:46 10° N
SL-16 R/B 3.3 18:50:59 10° SSE 18:55:14 22° E 18:55:26 22° E
GOES 2 Rocket 3.4 18:51:25 10° W 18:55:44 66° S 18:58:50 23° ESE
CZ-4 R/B 3.1 18:55:06 10° SSW 18:58:35 33° W 19:02:07 10° NNW
DELTA 2 R/B (1) 4.4 18:53:47 10° NW 18:58:49 34° N 19:00:47 26° NE
NOSS 3-2 (A) 4.1 18:51:07 10° NNW 18:58:50 63° ENE 19:07:03 10° SE
Cosmos 2322 Rocket 3.2 18:55:56 10° SSE 19:00:14 24° ESE 19:00:14 24° ESE
FENGYUN 3A 3.5 18:55:43 10° SSE 19:01:02 67° ENE 19:06:22 10° N
METEOR-M 4.4 18:56:54 10° S 19:02:11 69° WSW 19:07:31 10° NNW
Cosmos 2360 4.1 18:56:42 10° SSW 19:02:24 85° ESE 19:07:03 16° NNE
Hubble Space Telescope 2.0 19:00:13 10° W 19:04:02 36° SSW 19:06:33 18° SE
NOSS 3-2 (C) 4.1 18:58:55 10° NNW 19:06:31 53° ENE 19:14:35 10° SE
IUS-26 SRM-1 4.1 19:01:23 10° WSW 19:06:44 27° S 19:07:46 22° SE
Skynet4D Del rocket 3.9 19:03:06 10° W 19:09:10 63° S 19:11:57 29° ESE
SL-8 R/B 3.6 19:06:54 10° SW 19:11:44 84° SE 19:13:14 44° NE
ATLAS 3B R/B 3.1 19:06:01 10° NW 19:12:26 59° WSW 19:18:46 10° SSE
USA 215 3.5 19:08:12 10° SSE 19:14:42 68° SW 19:21:12 10° NW
Cosmos 1697 Rocket 4.2 19:11:32 10° SW 19:16:38 34° WNW 19:21:44 10° N
ERS-2 3.5 19:24:29 10° S 19:27:54 38° W 19:31:20 10° NNW
ISS -1.6 19:27:35 10° WNW 19:30:22 25° SW 19:31:40 19° SSW
NOSS 2-2 (D) 4.2 19:32:34 10° SW 19:36:16 43° WNW 19:36:41 42° NW
SPOT 3 Rocket 4.4 19:31:48 10° S 19:36:48 51° W 19:41:50 10° NNW
FengYun 1-2 T 4.1 19:35:38 10° SSE 19:41:13 80° ENE 19:46:52 10° N
Cosmos 1892 Rocket 3.9 19:39:20 10° SSW 19:43:45 63° W 19:44:08 60° NW
Delta 2 Rocket 4.5 19:47:24 10° WNW 19:52:37 49° SSW 19:52:51 49° SSW
CENTAUR R/B 3.5 19:45:36 10° NNW 19:51:51 43° NNE 19:51:51 43° NNE
Thor Agena Rocket 4.0 19:52:56 45° NNW 19:54:19 60° WNW 19:59:29 10° SSW
Cosmos 1980 Rocket 4.0 19:53:02 10° WSW 19:57:45 27° WNW 20:01:25 15° NNW
S3M 4.3 19:52:22 10° SSW 19:58:25 61° W 20:01:52 26° N
Lacrosse 5 rocket 3.6 20:07:27 10° SW 20:09:07 23° WSW 20:09:07 23° WSW
Atlas Centaur 2 3.9 20:13:39 10° W 20:16:06 20° SW 20:16:06 20° SW
SL-16 R/B 3.8 20:33:48 10° SW 20:37:22 31° W 20:37:22 31° W
Cosmos 2322 Rocket 4.0 20:39:02 10° SW 20:42:07 27° WSW 20:42:07 27° WSW
Cosmos 2344 4.2 20:43:39 10° SW 20:50:39 48° WNW 20:50:39 48° WNW
